Weather History for Litchfield, MN

Change the Weather History Date:

Sunday, March 3, 2013

  Actual Average Record
Temperature  
Mean Temperature 21 °F -  
Max Temperature 30 °F 33 °F 62 °F (1983)
Min Temperature 12 °F 14 °F -15 °F (1971)
Degree Days  
Heating Degree Days 44    
Moisture  
Dew Point 15 °F    
Average Humidity 70    
Maximum Humidity 86    
Minimum Humidity 51    
Precipitation  
Precipitation 0.00 in - - ()
Sea Level Pressure  
Sea Level Pressure 30.01 in    
Wind  
Wind Speed 9 mph (ESE)    
Max Wind Speed 20 mph    
Max Gust Speed 22 mph    
Visibility 10 miles    
Events      
Averages and records for this station are not official NWS values.
T = Trace of Precipitation, MM = Missing Value Source: NWS Daily Summary

Daily Weather History Graph

Daily Weather History Graph

Search for Another Location

Airport:

Trip Planner

Search our weather history database for the weather conditions in past years. The results will help you decide how hot, cold, wet, or windy it might be!

Date:

Astronomy

Mar. 03, 2013 Rise Set
Actual Time 6:51 AM CST 6:08 PM CST
Civil Twilight 6:22 AM CST 6:37 PM CST
Nautical Twilight 5:48 AM CST 7:12 PM CST
Astronomical Twilight 5:14 AM CST 7:46 PM CST
Moon 12:05 AM CST (3/3) 9:49 AM CST (3/3)
Length of Visible Light 12h 15m
Length of Day
11h 16m
Waning Gibbous, 63% of the Moon is Illuminated
Mar 3
Waning Gibbous
Mar 4
Last Quarter
Mar 11
New
Mar 19
First Quarter
Mar 27
Full

Hourly Weather History & Observations

Time (CST) Temp. Windchill Dew Point Humidity Pressure Visibility Wind Dir Wind Speed Gust Speed Precip Events Conditions
12:12 AM 21.2 °F 12.6 °F 17.6 °F 86% 30.11 in 10.0 mi ESE 6.9 mph - N/A   Overcast
12:33 AM 21.2 °F 13.6 °F 17.6 °F 86% 30.11 in 10.0 mi East 5.8 mph - N/A   Overcast
12:52 AM 23.0 °F 18.4 °F 15.8 °F 74% 30.11 in 10.0 mi SE 3.5 mph - N/A   Overcast
1:13 AM 21.2 °F 16.4 °F 15.8 °F 80% 30.10 in 10.0 mi SSE 3.5 mph - N/A   Overcast
1:33 AM 21.2 °F 14.9 °F 17.6 °F 86% 30.10 in 10.0 mi SSE 4.6 mph - N/A   Overcast
1:52 AM 21.2 °F 14.9 °F 17.6 °F 86% 30.10 in 10.0 mi SE 4.6 mph - N/A   Overcast
2:13 AM 21.2 °F 14.9 °F 17.6 °F 86% 30.10 in 10.0 mi ESE 4.6 mph - N/A   Overcast
2:33 AM 21.2 °F 14.9 °F 15.8 °F 80% 30.09 in 10.0 mi SE 4.6 mph - N/A   Overcast
2:52 AM 21.2 °F 12.6 °F 15.8 °F 80% 30.08 in 10.0 mi ESE 6.9 mph - N/A   Overcast
3:13 AM 21.2 °F 12.6 °F 15.8 °F 80% 30.08 in 10.0 mi SE 6.9 mph - N/A   Overcast
3:33 AM 21.2 °F 12.6 °F 15.8 °F 80% 30.07 in 10.0 mi SE 6.9 mph - N/A   Overcast
3:52 AM 19.4 °F 10.4 °F 14.0 °F 80% 30.06 in 10.0 mi SE 6.9 mph - N/A   Overcast
4:13 AM 17.6 °F 8.2 °F 14.0 °F 86% 30.06 in 10.0 mi SE 6.9 mph - N/A   Mostly Cloudy
4:33 AM 19.4 °F 11.5 °F 12.2 °F 74% 30.06 in 10.0 mi SE 5.8 mph - N/A   Scattered Clouds
4:52 AM 17.6 °F 9.3 °F 12.2 °F 79% 30.06 in 10.0 mi SE 5.8 mph - N/A   Clear
5:13 AM 15.8 °F 6.1 °F 10.4 °F 79% 30.05 in 10.0 mi SE 6.9 mph - N/A   Clear
5:33 AM 15.8 °F 6.1 °F 8.6 °F 73% 30.05 in 10.0 mi ESE 6.9 mph - N/A   Clear
5:52 AM 12.2 °F 1.7 °F 6.8 °F 79% 30.06 in 10.0 mi ESE 6.9 mph - N/A   Clear
6:13 AM 14.0 °F 3.9 °F 6.8 °F 73% 30.06 in 10.0 mi ESE 6.9 mph - N/A   Clear
6:33 AM 14.0 °F 5.1 °F 6.8 °F 73% 30.06 in 10.0 mi ESE 5.8 mph - N/A   Clear
6:52 AM 14.0 °F 5.1 °F 6.8 °F 73% 30.06 in 10.0 mi ESE 5.8 mph - N/A   Scattered Clouds
7:13 AM 14.0 °F 5.1 °F 6.8 °F 73% 30.06 in 10.0 mi SE 5.8 mph - N/A   Mostly Cloudy
7:33 AM 15.8 °F 7.2 °F 8.6 °F 73% 30.06 in 10.0 mi SE 5.8 mph - N/A   Mostly Cloudy
7:52 AM 17.6 °F 8.2 °F 10.4 °F 73% 30.06 in 10.0 mi ESE 6.9 mph - N/A   Mostly Cloudy
8:13 AM 19.4 °F 9.5 °F 12.2 °F 74% 30.05 in 10.0 mi ESE 8.1 mph - N/A   Overcast
8:33 AM 19.4 °F 7.9 °F 12.2 °F 74% 30.04 in 10.0 mi ESE 10.4 mph - N/A   Overcast
8:52 AM 21.2 °F 10.1 °F 14.0 °F 74% 30.04 in 10.0 mi ESE 10.4 mph - N/A   Overcast
9:13 AM 21.2 °F 8.9 °F 15.8 °F 80% 30.04 in 10.0 mi ESE 12.7 mph - N/A   Mostly Cloudy
9:33 AM 23.0 °F 12.4 °F 15.8 °F 74% 30.03 in 10.0 mi ESE 10.4 mph - N/A   Overcast
9:52 AM 24.8 °F 14.0 °F 15.8 °F 69% 30.03 in 10.0 mi SE 11.5 mph - N/A   Mostly Cloudy
10:13 AM 24.8 °F 13.4 °F 17.6 °F 74% 30.03 in 10.0 mi ESE 12.7 mph - N/A   Overcast
10:33 AM 24.8 °F 14.0 °F 17.6 °F 74% 30.03 in 10.0 mi ESE 11.5 mph - N/A   Mostly Cloudy
10:52 AM 26.6 °F 16.2 °F 17.6 °F 69% 30.03 in 10.0 mi ESE 11.5 mph - N/A   Scattered Clouds
11:13 AM 26.6 °F 14.3 °F 17.6 °F 69% 30.03 in 10.0 mi ESE 16.1 mph - N/A   Mostly Cloudy
11:33 AM 26.6 °F 14.3 °F 19.4 °F 74% 30.02 in 10.0 mi ESE 16.1 mph - N/A   Overcast
11:52 AM 26.6 °F 14.7 °F 19.4 °F 74% 30.01 in 10.0 mi SE 15.0 mph - N/A   Overcast
12:13 PM 28.4 °F 18.0 °F 19.4 °F 69% 30.01 in 10.0 mi ESE 12.7 mph - N/A   Mostly Cloudy
12:32 PM 28.4 °F 15.8 °F 17.6 °F 64% 30.00 in 10.0 mi ESE 18.4 mph - N/A   Mostly Cloudy
12:53 PM 28.4 °F 16.6 °F 15.8 °F 59% 29.99 in 10.0 mi ESE 16.1 mph - N/A   Mostly Cloudy
1:13 PM 28.4 °F 15.8 °F 12.2 °F 51% 29.99 in 10.0 mi SE 18.4 mph - N/A   Scattered Clouds
1:32 PM 28.4 °F 17.0 °F 12.2 °F 51% 29.98 in 10.0 mi ESE 15.0 mph - N/A   Clear
1:53 PM 28.4 °F 17.0 °F 12.2 °F 51% 29.97 in 10.0 mi SE 15.0 mph - N/A   Clear
2:13 PM 28.4 °F 16.6 °F 14.0 °F 55% 29.96 in 10.0 mi SE 16.1 mph 21.9 mph N/A   Clear
2:32 PM 28.4 °F 16.6 °F 15.8 °F 59% 29.96 in 10.0 mi ESE 16.1 mph - N/A   Clear
2:53 PM 30.2 °F 19.3 °F 14.0 °F 51% 29.96 in 10.0 mi SE 15.0 mph - N/A   Clear
3:13 PM 28.4 °F 16.2 °F 15.8 °F 59% 29.95 in 10.0 mi ESE 17.3 mph - N/A   Clear
3:32 PM 28.4 °F 16.6 °F 15.8 °F 59% 29.95 in 10.0 mi ESE 16.1 mph - N/A   Clear
3:53 PM 28.4 °F 15.4 °F 14.0 °F 55% 29.94 in 10.0 mi SE 19.6 mph - N/A   Clear
4:13 PM 28.4 °F 16.6 °F 15.8 °F 59% 29.94 in 10.0 mi ESE 16.1 mph 20.7 mph N/A   Clear
4:32 PM 28.4 °F 18.5 °F 15.8 °F 59% 29.94 in 10.0 mi ESE 11.5 mph - N/A   Clear
4:53 PM 28.4 °F 18.0 °F 15.8 °F 59% 29.94 in 10.0 mi ESE 12.7 mph - N/A   Clear
5:13 PM 28.4 °F 19.7 °F 17.6 °F 64% 29.94 in 10.0 mi ESE 9.2 mph - N/A   Scattered Clouds
5:32 PM 28.4 °F 18.5 °F 17.6 °F 64% 29.94 in 10.0 mi ESE 11.5 mph - N/A   Scattered Clouds
5:53 PM 28.4 °F 18.5 °F 17.6 °F 64% 29.94 in 10.0 mi ESE 11.5 mph - N/A   Mostly Cloudy
6:32 PM 28.4 °F 19.1 °F 17.6 °F 64% 29.94 in 10.0 mi ESE 10.4 mph - N/A   Overcast
6:53 PM 28.4 °F 18.0 °F 17.6 °F 64% 29.94 in 10.0 mi ESE 12.7 mph - N/A   Mostly Cloudy
7:13 PM 28.4 °F 18.0 °F 15.8 °F 59% 29.94 in 10.0 mi ESE 12.7 mph - N/A   Mostly Cloudy
7:32 PM 26.6 °F 15.2 °F 15.8 °F 64% 29.94 in 10.0 mi ESE 13.8 mph - N/A   Overcast
7:53 PM 26.6 °F 14.7 °F 15.8 °F 64% 29.94 in 10.0 mi ESE 15.0 mph - N/A   Mostly Cloudy
8:13 PM 26.6 °F 16.8 °F 15.8 °F 64% 29.94 in 10.0 mi East 10.4 mph - N/A   Mostly Cloudy
8:32 PM 26.6 °F 15.2 °F 17.6 °F 69% 29.94 in 10.0 mi ESE 13.8 mph - N/A   Mostly Cloudy
8:53 PM 26.6 °F 15.2 °F 17.6 °F 69% 29.94 in 10.0 mi ESE 13.8 mph - N/A   Mostly Cloudy
9:13 PM 26.6 °F 14.7 °F 17.6 °F 69% 29.93 in 10.0 mi ESE 15.0 mph - N/A   Overcast
9:32 PM 26.6 °F 15.2 °F 17.6 °F 69% 29.93 in 10.0 mi ESE 13.8 mph - N/A   Mostly Cloudy
9:53 PM 26.6 °F 15.2 °F 17.6 °F 69% 29.93 in 10.0 mi ESE 13.8 mph - N/A   Mostly Cloudy
10:12 PM 26.6 °F 14.7 °F 17.6 °F 69% 29.93 in 10.0 mi ESE 15.0 mph 20.7 mph N/A   Mostly Cloudy
10:33 PM 26.6 °F 15.2 °F 15.8 °F 64% 29.93 in 10.0 mi SE 13.8 mph - N/A   Overcast
10:53 PM 26.6 °F 16.8 °F 15.8 °F 64% 29.94 in 10.0 mi SE 10.4 mph - N/A   Overcast
11:13 PM 26.6 °F 17.5 °F 15.8 °F 64% 29.94 in 10.0 mi SE 9.2 mph - N/A   Overcast
11:33 PM 26.6 °F 16.8 °F 15.8 °F 64% 29.94 in 10.0 mi SE 10.4 mph - N/A   Overcast
11:53 PM 26.6 °F 16.8 °F 15.8 °F 64% 29.94 in 10.0 mi SE 10.4 mph - N/A   Overcast